Date,TemperatureHighF,TemperatureAvgF,TemperatureLowF,DewpointHighF,DewpointAvgF,DewpointLowF,HumidityHigh,HumidityAvg,HumidityLow,PressureMaxIn,PressureMinIn,WindSpeedMaxMPH,WindSpeedAvgMPH,GustSpeedMaxMPH,PrecipitationSumIn
2013-4-1,66,53,42,54,46,38,100,81,47,30.07,29.89,17,3,22,0.00
2013-4-2,62,49,36,39,30,23,74,49,27,30.22,30.07,10,2,14,0.00
2013-4-3,66,50,33,38,31,25,82,51,29,30.27,30.17,14,2,17,0.00
2013-4-4,51,46,42,44,38,26,98,76,40,30.18,29.97,12,3,15,0.68
2013-4-5,71,53,41,51,45,41,100,76,39,30.08,29.96,10,1,16,0.00
2013-4-6,74,56,37,53,45,35,92,68,38,30.18,30.04,13,1,16,0.00
2013-4-7,75,61,46,55,48,41,89,64,43,30.14,30.02,18,4,25,0.00
2013-4-8,78,64,51,61,55,48,92,74,52,30.09,29.99,20,4,31,0.00
2013-4-9,82,68,53,65,59,51,95,74,52,30.18,30.02,17,3,23,0.00
2013-4-10,88,72,56,68,62,54,96,74,48,30.11,29.88,16,2,22,0.00
2013-4-11,86,73,64,69,63,60,100,73,49,29.90,29.64,22,3,32,0.86
2013-4-12,69,60,54,64,53,43,100,80,44,29.93,29.58,15,4,21,0.21
2013-4-13,76,60,43,53,46,41,95,64,33,30.06,29.93,13,2,18,0.00
2013-4-14,74,60,43,59,50,41,91,72,49,30.04,29.92,17,1,24,0.02
2013-4-15,84,68,56,68,61,54,98,78,54,30.07,29.90,10,1,14,0.00
2013-4-16,87,71,56,72,64,54,97,81,59,30.22,30.07,11,1,15,0.00
2013-4-17,75,67,61,69,65,61,100,94,78,30.25,30.04,15,2,21,0.18
2013-4-18,88,71,57,71,62,57,100,79,45,30.04,29.81,18,3,25,0.00
2013-4-19,73,60,48,67,54,37,100,80,65,30.05,29.66,18,6,30,1.25
2013-4-20,68,51,35,46,38,33,95,65,33,30.25,30.05,10,2,17,0.00
2013-4-21,76,55,38,52,43,36,93,66,35,30.35,30.22,10,1,13,0.00
2013-4-22,81,62,44,57,49,40,88,65,36,30.30,30.11,11,2,17,0.00
2013-4-23,77,61,45,62,51,42,92,71,47,30.19,29.99,10,1,14,0.00
2013-4-24,71,59,48,66,56,43,100,89,71,30.20,29.94,24,5,37,0.24
2013-4-25,73,56,40,60,45,39,100,71,36,30.32,30.20,8,1,12,0.00
2013-4-26,73,56,39,55,46,37,95,72,42,30.55,30.25,12,1,16,0.01
2013-4-27,59,55,53,59,55,52,100,99,90,30.32,30.07,6,0,8,0.54
2013-4-28,60,56,53,60,56,53,100,100,100,30.09,29.90,15,1,26,1.43
2013-4-29,77,63,54,68,60,45,100,90,65,30.01,29.91,9,1,12,0.00
2013-4-30,88,68,51,87,61,50,100,81,43,30.04,29.93,7,0,10,0.00